Skip Page Navigation
NASA JPL Caltech
NASA Logo - Jet Propulsion Laboratory + View the NASA Portal
+ Center for Near-Earth Object Studies
JPL Home Earth Solar System Stars & Galaxies Technology
JPL Solar System Dynamics
BODIES ORBITS EPHEMERIDES TOOLS PHYSICAL DATA DISCOVERY FAQ SITE MAP
JPL Small-Body Database Browser
Search: [ help ]  
160460 (2006 BH22)
Classification: Main-belt Asteroid          SPK-ID: 2160460
Ephemeris | Orbit Diagram | Orbital Elements | Mission Design | Physical Parameters | Discovery Circumstances ]

[ show orbit diagram ]
Orbital Elements at Epoch 2459000.5 (2020-May-31.0) TDB
Reference: JPL 17 (heliocentric ecliptic J2000)
 Element Value Uncertainty (1-sigma)   Units 
e .1116422432658743 4.2849e-08  
a 2.374421208000831 1.3064e-08 au
q 2.109335497881551 1.0182e-07 au
i 5.030184285146017 4.0345e-06 deg
node 129.6908170567117 5.1065e-05 deg
peri 115.8189894644134 5.3925e-05 deg
M 231.9605769349641 1.883e-05 deg
tp 2459475.809263689096
(2021-Sep-18.30926369)
7.1844e-05 TDB
period 1336.395704010324
3.66
1.103e-05
3.02e-08
d
yr
n .2693812909751907 2.2233e-09 deg/d
Q 2.639506918120111 1.4523e-08 au
  Orbit Determination Parameters
   # obs. used (total)      399  
   data-arc span      7066 days (19.35 yr)  
   first obs. used      2000-09-26  
   last obs. used      2020-01-31  
   planetary ephem.      DE431  
   SB-pert. ephem.      SB431-N16  
   condition code      0  
   norm. resid. RMS      .62687  
   source      ORB  
   producer      Otto Matic  
   solution date      2020-Feb-24 13:20:22  

Additional Information
 Earth MOID = 1.10158 au 
 Jupiter MOID = 2.38321 au 
 T_jup = 3.529 
[ show covariance matrix ]

Ephemeris | Orbit Diagram | Orbital Elements | Mission Design | Physical Parameters | Discovery Circumstances ]

Physical Parameter Table
Parameter Symbol Value Units Sigma Reference Notes
absolute magnitude H 16.4   n/a MPO449862  

160460 (2006 BH22)          Discovered 2006-Jan-22 by Mt. Lemmon Survey at Mount Lemmon
Reference: 20070730/Numbers.arcLast Updated: 2007-08-06

Alternate Designations
 2006 BH22 = 2006 AH98 
Ephemeris | Orbit Diagram | Orbital Elements | Mission Design | Physical Parameters | Discovery Circumstances ]
ABOUT SSD CREDITS/AWARDS PRIVACY/COPYRIGHT GLOSSARY LINKS
FirstGov 2020-Sep-20 19:03 UT
(server date/time)  
NASA Home Page
Site Manager:   Ryan S. Park
Webmaster  Alan B. Chamberlin